Temperature
20 19 19 18 18 18 18 17 17 17 16 16 16 16 16 15 15 15 15 15 14 14 14 14 14 14 14 14 14 14 14 15 15 15 15 15 15 15 15 15 15 15 15
19 19 18 18 18 18 18 17 17 16 16 16 16 16 16 15 15 15 15 14 14 14 14 14 14 14 14 13 13 14 14 14 14 15 15 15 15 15 15 15 15 15 15
19 19 18 18 18 18 18 17 17 16 16 16 16 16 16 15 15 15 15 14 14 14 14 14 13 13 13 13 13 13 13 13 13 14 14 15 15 15 15 15 14 14 14
19 19 18 18 18 17 17 17 17 16 16 16 15 15 15 15 15 15 15 14 14 14 14 13 13 13 13 13 13 13 13 13 13 13 14 14 14 15 15 14 14 14 14
18 18 17 17 17 17 17 17 16 16 16 15 15 15 15 15 15 15 15 15 14 14 14 13 13 13 13 13 13 13 13 13 13 13 13 13 14 14 14 15 14 14 14
17 17 17 16 16 16 16 16 16 16 16 15 15 15 15 15 15 15 15 15 14 14 14 14 13 13 13 13 13 13 13 13 13 13 13 13 14 14 14 14 14 14 14
17 16 16 16 16 16 16 16 16 15 15 15 15 15 15 15 15 15 15 15 15 14 14 14 14 14 13 13 13 13 13 13 13 13 13 13 13 13 14 14 14 14 14
15 15 15 15 15 15 15 15 15 15 15 15 15 15 15 15 15 15 15 15 15 14 14 14 14 14 14 14 13 13 13 13 13 13 13 13 13 13 13 13 13 13 13
14 14 14 14 14 14 14 14 14 14 14 14 14 15 15 15 15 15 14 14 14 14 14 14 14 14 14 14 14 13 13 13 13 13 13 13 13 13 13 13 13 13 13
13 13 13 13 13 13 13 13 13 13 13 13 14 14 14 14 14 14 14 14 14 14 14 14 14 14 14 14 14 13 13 13 13 13 13 13 13 13 13 13 13 13 13
12 12 12 12 12 12 12 12 12 12 12 13 13 13 14 14 14 14 14 14 14 14 14 14 14 14 14 14 13 13 13 13 13 13 13 13 13 13 13 13 13 13 13
12 12 12 12 12 12 12 12 12 12 12 12 12 13 13 13 13 13 13 14 13 13 13 13 13 13 13 13 13 13 13 13 13 13 13 13 13 13 13 13 13 13 13
12 12 12 12 12 11 11 11 12 12 12 12 12 12 12 13 13 13 13 13 13 13 13 13 13 13 13 13 13 13 13 13 12 13 13 12 12 12 12 12 12 12 12
12 12 12 11 11 11 11 11 11 12 12 12 12 12 12 12 12 12 12 12 12 12 12 12 12 13 12 12 12 12 12 12 12 12 12 12 12 12 12 12 12 12 11
12 12 12 11 11 11 11 11 11 11 11 11 11 11 11 11 11 11 12 12 12 12 12 12 12 12 12 12 12 12 12 11 12 12 11 11 11 11 11 11 11 11 11
12 12 12 11 11 11 11 11 11 10 10 11 11 11 11 11 11 11 11 12 12 12 12 12 12 12 12 11 11 11 11 11 11 11 11 11 11 11 11 10 10 11 11
12 12 12 11 11 11 11 11 10 10 10 10 10 10 10 10 11 11 11 11 11 11 11 11 11 11 11 11 11 11 11 11 11 10 10 10 10 10 10 10 10 10 10
12 12 12 11 11 11 11 11 10 10 10 9 9 9 10 10 10 10 10 10 10 10 10 10 10 10 10 10 10 10 10 10 10 10 10 10 10 10 10 10 10 10 10
12 12 12 11 11 11 11 11 10 10 10 9 9 9 9 9 9 9 9 10 10 10 10 10 10 10 10 10 10 10 10 10 10 9 9 9 9 9 9 9 9 9 9
13 12 12 11 11 11 11 11 10 10 10 9 9 9 9 9 9 9 9 9 9 9 9 9 9 9 9 9 9 9 9 9 9 9 9 9 9 9 9 9 9 9 9
13 12 12 11 11 11 11 11 10 10 10 10 9 9 9 9 9 9 9 9 9 9 9 9 9 9 8 8 9 9 8 8 8 8 8 8 8 8 8 8 8 8 8
13 12 12 11 11 11 11 10 10 10 10 10 10 9 9 9 9 9 9 9 9 8 8 8 8 8 8 8 8 8 8 8 8 8 8 8 8 8 8 8 8 8 8
13 12 11 11 11 11 11 11 10 10 10 10 10 10 9 9 9 9 9 9 8 8 8 8 8 8 8 8 8 8 8 8 8 8 8 8 7 7 7 7 7 7 7
13 12 12 11 11 11 11 10 10 10 10 10 10 10 9 9 9 9 9 9 9 8 8 8 8 8 8 8 8 8 8 8 8 8 7 7 7 7 7 7 7 7 7
13 12 11 11 11 11 11 10 10 10 10 10 10 10 9 9 9 9 9 8 8 8 8 8 8 8 8 8 8 8 8 8 7 7 7 6 6 6 6 6 6 6 6
13 12 11 11 11 11 11 11 10 10 10 10 10 10 9 9 9 8 8 8 8 8 8 8 8 8 8 8 8 8 8 7 7 7 6 6 6 6 6 6 6 6 6
Wind_Speed
6 5 6 6 6 6 5 5 4 3 4 4 4 4 4 3 3 4 3 4 5 5 5 7 8 7 7 6 5 5 4 4 4 3 2 3 6 7 8 11 12 12 12
5 5 6 6 5 5 5 5 5 5 4 4 4 4 4 4 4 4 3 4 4 5 5 5 6 6 7 7 6 5 4 4 3 3 2 3 5 7 7 7 8 11 12
5 6 5 4 4 5 5 5 5 5 5 5 5 5 5 4 4 4 4 3 3 3 4 5 5 6 7 6 7 6 4 4 3 3 3 2 2 3 4 4 4 4 9
5 5 4 3 3 4 4 4 5 5 6 6 6 6 6 5 5 5 5 4 4 3 3 3 4 5 6 6 6 7 6 5 4 3 3 2 2 3 4 4 4 4 5
3 3 1 1 2 3 4 4 5 5 6 6 6 6 6 6 6 6 6 6 5 4 4 4 4 6 7 6 5 6 6 5 4 4 4 3 3 3 5 5 6 4 4
6 4 2 1 1 3 3 3 3 4 4 5 6 7 7 7 9 12 9 6 6 6 5 5 5 6 9 10 9 9 9 7 6 5 4 5 5 5 5 5 5 4 4
8 5 4 3 2 3 2 1 1 2 2 3 5 6 7 9 11 13 14 8 7 6 6 5 5 6 9 6 8 10 10 11 11 7 6 7 6 7 6 6 7 7 7
8 7 6 5 4 4 4 4 3 1 1 2 4 5 6 8 12 12 13 8 6 6 6 7 7 6 7 8 7 7 7 8 9 9 8 8 8 7 8 8 9 7 3
7 6 6 5 5 5 5 5 3 2 2 2 2 4 5 7 10 11 9 5 4 5 5 5 7 7 9 10 7 7 7 6 8 11 12 11 12 12 9 5 5 5 5
5 5 5 5 5 5 5 4 3 2 2 2 2 2 3 5 6 8 8 4 4 3 2 2 5 7 7 8 7 7 7 6 4 4 5 7 7 7 10 9 8 6 4
4 5 5 5 5 4 4 4 4 4 4 3 3 2 1 2 3 5 7 4 4 3 2 1 1 4 5 5 6 6 7 5 3 3 3 3 2 3 4 5 6 7 7
3 5 5 6 6 5 6 6 6 6 5 5 4 4 3 2 1 3 7 5 5 4 3 1 2 3 3 3 3 4 4 3 2 1 1 2 2 2 3 3 4 6 6
4 4 4 5 6 6 7 7 6 7 6 5 5 4 4 4 4 3 3 3 3 2 2 3 3 3 2 1 1 2 2 2 2 1 1 1 2 1 0 1 1 1 1
4 3 3 4 5 6 6 6 7 7 7 6 6 5 4 5 5 4 3 3 3 2 1 2 4 4 2 1 1 1 1 2 2 2 1 1 0 1 1 1 1 1 1
3 2 2 2 3 4 5 6 6 6 5 4 4 4 4 4 5 5 2 2 1 1 2 2 1 1 0 1 0 0 0 1 1 1 1 1 0 0 0 0 1 1 1
2 1 1 1 1 2 2 3 7 6 9 10 8 6 5 5 6 6 6 4 2 3 3 2 1 1 0 0 0 0 0 1 1 1 1 1 1 1 1 1 1 1 2
2 1 0 1 0 1 1 1 1 3 6 9 10 9 8 8 9 8 8 8 8 6 5 4 3 2 2 2 1 1 1 1 1 1 1 0 1 1 1 2 2 2 3
3 1 1 1 1 0 1 1 2 2 3 4 6 8 9 10 10 10 9 8 7 6 5 4 4 4 3 3 3 2 2 2 2 1 1 1 1 1 1 2 2 3 3
3 1 1 1 1 2 2 3 3 3 3 3 3 5 8 8 10 11 9 6 5 5 5 5 5 4 4 4 3 3 3 3 3 2 2 2 2 1 1 2 2 4 3
3 3 2 2 2 2 3 3 3 3 3 3 4 4 4 5 5 6 6 5 5 5 5 5 5 5 5 4 4 4 4 4 4 3 3 3 2 2 2 3 3 3 3
3 2 2 3 2 3 3 3 3 3 3 3 2 3 4 4 4 5 5 5 5 4 4 4 4 5 5 4 4 4 4 4 4 3 3 3 3 2 2 3 3 3 3
4 3 2 3 3 3 3 3 4 3 3 2 2 3 6 4 4 4 4 5 5 5 4 5 5 5 5 5 5 4 4 4 4 4 4 4 4 3 3 3 3 3 3
5 4 3 3 3 4 4 3 3 3 3 2 2 2 3 3 4 4 4 5 5 5 5 5 5 5 5 5 5 4 4 4 4 4 4 4 4 4 4 3 4 4 4
5 5 5 4 3 3 3 3 3 3 3 3 2 2 3 3 4 4 4 4 5 5 5 5 5 6 7 6 6 6 5 6 6 5 5 5 4 4 4 3 3 4 3
5 5 5 4 4 4 4 4 4 3 3 3 3 3 3 4 4 4 4 4 5 5 6 6 6 7 8 8 8 8 10 10 8 6 5 3 4 4 4 3 3 3 3
5 6 5 4 4 4 4 4 4 4 4 3 4 4 4 4 4 4 4 4 4 4 4 5 8 9 9 9 10 11 11 10 9 6 4 3 3 4 4 3 4 3 3
Wind_Direction
168 163 158 163 162 155 156 169 167 162 159 157 156 149 148 149 151 159 174 173 186 198 202 203 207 194 186 182 176 176 183 173 197 226 212 191 174 176 177 190 196 196 198
168 163 173 170 163 166 174 182 180 176 178 179 172 169 170 164 157 158 165 167 182 196 201 202 205 195 186 178 174 176 182 178 184 203 211 187 185 184 174 181 193 201 202
169 167 179 173 172 189 195 197 195 190 192 191 187 194 196 187 178 175 168 167 179 190 193 196 195 185 181 175 171 174 180 184 177 188 208 204 178 155 151 184 192 196 205
170 165 170 165 200 218 221 212 206 201 200 204 206 208 205 198 193 189 181 178 182 188 188 186 180 178 175 171 172 173 171 175 177 185 198 208 199 158 154 173 190 205 207
132 109 88 97 239 237 229 224 221 213 212 209 211 215 209 203 206 197 192 190 189 194 197 195 194 194 193 187 181 175 171 177 182 194 200 193 191 171 193 187 198 189 212
87 75 77 87 285 269 255 245 237 236 230 212 211 213 212 219 214 201 194 195 193 197 205 210 216 218 219 216 211 198 187 187 195 199 203 207 209 206 192 186 179 172 227
71 69 54 51 20 336 319 328 286 265 243 227 220 213 218 227 222 209 201 191 195 203 207 209 223 225 222 222 229 228 220 216 208 200 209 217 213 208 193 194 194 199 214
58 52 42 41 30 13 15 6 349 328 274 239 234 227 225 233 228 216 202 192 198 209 211 211 220 234 222 212 216 223 230 233 228 225 224 229 226 215 203 205 206 213 214
46 40 32 33 33 26 16 358 343 334 317 283 255 232 228 243 232 215 192 176 195 213 221 219 216 227 236 220 207 222 237 245 245 237 234 237 238 231 209 192 184 185 221
36 35 30 34 38 23 5 349 338 330 315 315 313 260 230 241 237 215 183 168 184 198 227 243 224 220 231 210 197 206 228 243 241 250 244 249 244 238 217 203 196 195 202
24 38 34 30 29 19 5 358 353 358 8 10 14 11 356 239 232 199 170 165 177 174 186 225 247 216 212 206 196 204 227 231 223 232 243 252 249 236 222 211 204 204 209
41 46 37 28 24 23 19 14 14 19 25 21 25 24 15 10 102 169 165 164 160 158 171 188 211 178 172 189 199 219 230 213 186 204 220 244 248 249 240 220 211 213 216
66 59 44 37 33 30 31 25 21 20 23 18 23 26 19 18 29 62 117 138 135 138 167 178 173 152 122 120 223 198 150 141 151 168 212 241 253 257 212 148 137 153 145
82 76 54 51 43 37 36 31 32 23 19 19 23 26 27 24 21 23 45 70 86 89 85 101 110 103 84 359 9 52 119 159 161 176 198 218 39 61 76 100 137 146 173
87 76 58 63 72 59 52 40 34 30 21 22 23 28 32 28 6 13 53 66 90 137 113 94 87 77 12 345 330 284 156 123 123 138 139 137 120 88 87 111 138 158 186
95 65 15 56 100 113 94 62 37 36 35 43 47 49 38 31 23 37 43 44 63 120 110 98 88 80 88 232 191 86 88 117 138 138 134 154 196 236 250 225 209 218 241
140 148 17 13 346 191 178 145 58 16 26 36 37 40 41 34 37 39 44 55 58 79 80 78 72 66 58 59 68 77 60 44 97 103 105 198 251 255 252 250 242 248 258
148 135 104 29 4 92 144 145 132 85 29 6 9 21 26 30 35 42 51 62 53 51 61 65 59 54 51 51 52 50 47 43 49 50 36 0 314 274 270 272 262 256 262
153 153 94 53 59 81 89 94 98 93 66 29 10 6 10 21 36 44 53 62 65 57 51 50 46 43 41 42 44 44 44 41 38 38 28 10 346 323 296 290 283 280 269
164 170 140 95 84 92 97 97 98 93 75 53 31 7 0 34 46 40 43 50 57 55 52 51 45 41 37 37 38 42 45 40 34 33 20 7 356 346 314 301 293 283 271
167 169 132 105 110 124 124 122 122 117 102 75 28 11 43 64 62 57 52 49 51 52 52 53 48 38 34 33 34 39 44 36 27 17 4 351 343 333 316 301 294 288 284
158 164 150 137 132 130 133 130 129 129 125 105 46 31 53 64 64 64 57 50 48 45 46 52 48 38 33 31 28 30 29 21 11 359 346 336 328 319 314 313 313 309 302
153 161 153 142 138 132 127 129 135 140 140 129 101 69 64 72 73 72 68 61 56 50 43 46 49 37 28 31 32 27 15 355 338 328 323 320 320 319 318 316 317 316 314
147 154 155 151 143 141 147 150 150 153 152 143 122 105 96 92 88 83 80 74 67 56 48 44 42 35 28 22 16 9 356 338 324 311 311 311 314 316 319 321 324 322 318
143 149 156 158 156 157 159 157 156 156 155 149 138 124 114 104 97 91 85 79 74 64 52 45 36 26 18 13 6 355 346 342 336 323 309 309 317 324 331 336 335 334 333
147 152 157 159 160 162 163 163 164 160 156 151 142 135 126 116 108 98 90 84 76 64 54 45 35 26 17 8 360 357 358 359 359 356 342 328 341 352 354 355 357 355 345
Height
1489 1491 1492 1493 1494 1495 1495 1495 1495 1495 1495 1495 1495 1495 1495 1495 1495 1495 1495 1495 1496 1497 1499 1500 1502 1504 1507 1509 1512 1515 1518 1521 1523 1526 1528 1530 1532 1533 1535 1536 1537 1537 1538
1490 1491 1492 1493 1493 1494 1494 1494 1494 1494 1495 1495 1495 1495 1494 1494 1494 1494 1493 1493 1494 1495 1496 1497 1498 1500 1501 1504 1506 1509 1513 1516 1519 1522 1524 1526 1528 1530 1531 1533 1534 1535 1535
1489 1490 1491 1492 1493 1494 1494 1494 1494 1494 1494 1494 1494 1494 1494 1494 1494 1493 1493 1493 1493 1493 1494 1494 1495 1496 1497 1500 1502 1505 1508 1511 1514 1518 1520 1523 1525 1526 1528 1529 1530 1531 1532
1488 1489 1490 1491 1493 1494 1494 1494 1493 1493 1493 1493 1494 1494 1494 1494 1493 1493 1493 1492 1492 1492 1493 1493 1494 1495 1496 1498 1500 1502 1504 1507 1510 1513 1516 1518 1521 1522 1524 1525 1526 1527 1528
1487 1487 1489 1490 1492 1492 1492 1492 1492 1491 1491 1491 1492 1492 1493 1493 1492 1492 1492 1492 1492 1492 1493 1493 1494 1495 1496 1497 1498 1500 1502 1504 1507 1509 1512 1514 1516 1517 1519 1520 1522 1523 1524
1485 1485 1486 1487 1488 1489 1489 1490 1489 1489 1489 1489 1489 1490 1490 1491 1491 1491 1491 1492 1492 1492 1493 1493 1494 1495 1496 1497 1498 1499 1501 1502 1504 1506 1507 1509 1511 1513 1515 1516 1517 1518 1519
1483 1484 1485 1486 1486 1486 1486 1486 1486 1486 1486 1486 1486 1486 1487 1488 1489 1489 1490 1490 1491 1491 1492 1493 1493 1494 1495 1496 1497 1498 1499 1500 1501 1503 1504 1505 1507 1509 1511 1511 1512 1513 1514
1484 1484 1484 1483 1482 1482 1482 1482 1482 1481 1482 1482 1482 1483 1483 1484 1485 1486 1487 1488 1489 1490 1491 1492 1492 1493 1494 1495 1495 1496 1497 1497 1498 1499 1500 1501 1503 1504 1505 1506 1507 1509 1510
1484 1483 1483 1482 1481 1480 1479 1478 1477 1477 1478 1478 1479 1479 1479 1480 1481 1483 1484 1485 1486 1487 1489 1490 1490 1491 1492 1492 1493 1493 1494 1494 1495 1496 1496 1497 1498 1499 1500 1501 1502 1503 1503
1485 1484 1483 1481 1480 1478 1476 1475 1474 1474 1474 1474 1474 1475 1476 1477 1478 1479 1480 1482 1483 1484 1486 1487 1488 1489 1490 1490 1490 1490 1490 1491 1492 1492 1492 1493 1494 1494 1495 1496 1497 1498 1498
1487 1485 1483 1481 1479 1477 1475 1473 1472 1471 1471 1471 1471 1472 1472 1473 1474 1475 1477 1478 1480 1482 1483 1485 1486 1487 1487 1487 1487 1487 1487 1487 1487 1488 1488 1489 1489 1490 1490 1491 1492 1493 1493
1489 1486 1484 1482 1479 1477 1475 1473 1472 1471 1470 1470 1470 1470 1470 1471 1472 1473 1474 1476 1477 1479 1481 1482 1483 1484 1484 1484 1484 1484 1484 1484 1484 1485 1485 1486 1486 1486 1486 1487 1487 1487 1488
1490 1488 1486 1484 1481 1479 1477 1475 1473 1472 1471 1470 1469 1469 1469 1469 1469 1470 1472 1473 1475 1477 1478 1479 1480 1481 1481 1481 1481 1481 1481 1481 1482 1482 1483 1483 1483 1483 1483 1483 1483 1483 1483
1492 1490 1488 1486 1484 1482 1479 1477 1476 1474 1472 1471 1470 1469 1469 1469 1469 1470 1471 1472 1473 1474 1476 1477 1478 1478 1478 1478 1479 1479 1479 1479 1480 1480 1480 1481 1481 1481 1480 1480 1480 1480 1480
1493 1491 1490 1488 1486 1484 1482 1480 1478 1476 1475 1473 1472 1471 1470 1469 1469 1470 1470 1471 1472 1473 1474 1475 1476 1476 1476 1476 1477 1477 1477 1478 1478 1478 1478 1478 1478 1478 1478 1478 1478 1477 1477
1494 1492 1491 1489 1487 1486 1484 1482 1480 1478 1477 1475 1474 1472 1471 1471 1470 1470 1471 1471 1472 1472 1473 1474 1474 1475 1475 1475 1475 1476 1476 1476 1476 1477 1477 1476 1476 1476 1476 1476 1476 1476 1475
1494 1493 1491 1490 1488 1487 1485 1483 1482 1481 1479 1477 1475 1474 1473 1472 1472 1472 1472 1472 1472 1472 1473 1473 1473 1474 1474 1474 1474 1475 1475 1475 1475 1475 1475 1475 1475 1475 1474 1474 1474 1473 1473
1495 1493 1492 1491 1489 1488 1486 1485 1483 1482 1481 1479 1478 1476 1476 1475 1474 1474 1474 1474 1473 1473 1473 1473 1473 1474 1474 1474 1474 1474 1474 1474 1474 1474 1474 1474 1473 1473 1472 1472 1471 1471 1470
1494 1493 1492 1491 1490 1489 1488 1486 1485 1484 1483 1482 1480 1479 1478 1478 1477 1476 1476 1476 1475 1475 1475 1475 1475 1474 1474 1474 1474 1473 1473 1473 1473 1473 1472 1472 1471 1471 1470 1470 1469 1468 1467
1494 1493 1493 1492 1491 1490 1489 1488 1487 1486 1485 1484 1483 1482 1481 1481 1480 1479 1479 1478 1478 1477 1477 1476 1476 1475 1475 1474 1474 1473 1473 1472 1472 1471 1471 1470 1469 1469 1468 1467 1466 1465 1464
1494 1493 1493 1492 1492 1491 1490 1489 1489 1488 1487 1486 1486 1485 1484 1484 1483 1482 1481 1481 1480 1479 1478 1478 1477 1476 1475 1474 1473 1473 1472 1471 1470 1470 1469 1468 1468 1467 1466 1464 1463 1462 1460
1493 1493 1493 1492 1492 1491 1491 1490 1490 1490 1489 1489 1488 1487 1487 1486 1485 1485 1484 1483 1482 1481 1480 1478 1477 1476 1475 1474 1473 1472 1470 1469 1468 1467 1467 1466 1465 1464 1462 1461 1460 1458 1457
1492 1492 1492 1492 1492 1492 1492 1491 1491 1491 1491 1490 1490 1489 1489 1488 1487 1486 1485 1484 1483 1481 1480 1479 1477 1476 1475 1473 1472 1470 1469 1467 1466 1465 1464 1462 1462 1461 1459 1458 1457 1455 1454
1491 1491 1492 1492 1492 1492 1492 1492 1492 1492 1492 1492 1492 1491 1490 1489 1488 1487 1486 1485 1483 1482 1480 1479 1477 1476 1474 1472 1471 1469 1467 1466 1464 1462 1461 1460 1459 1458 1457 1456 1454 1453 1451
1490 1490 1491 1491 1491 1492 1492 1492 1493 1493 1493 1493 1492 1492 1491 1490 1489 1488 1487 1485 1484 1482 1480 1479 1477 1475 1474 1472 1470 1468 1466 1464 1462 1461 1460 1459 1458 1457 1456 1454 1453 1451 1449
1489 1489 1490 1490 1491 1491 1492 1492 1492 1493 1493 1493 1493 1492 1491 1490 1489 1488 1487 1485 1484 1482 1481 1479 1478 1476 1474 1472 1470 1468 1466 1464 1462 1460 1459 1458 1457 1456 1454 1453 1451 1450 1448